This is the latest recevied weather packets stored in our database for station/object HB9TJR-3. If no packets are shown the sender has not sent any weather packets the latest 10 day(s).
| Time | Temp. | Humidity | Pressure | Rain* | Wind** | Luminosity | Snow |
|---|---|---|---|---|---|---|---|
| 1787580451 | 19.44° C | 63% | 867 hPa | 0 mm | - | - | - |
| 1787579491 | 18.89° C | 68% | 867.1 hPa | 0 mm | - | - | - |
| 1787577571 | 20° C | 65% | 867.5 hPa | 0 mm | - | - | - |
| 1787576610 | 20° C | 61% | 867.6 hPa | 0 mm | - | - | - |
| 1787575654 | 20° C | 65% | 868 hPa | 0 mm | - | - | - |
| 1787575650 | 20° C | 65% | 868 hPa | 0 mm | - | - | - |
| 1787574690 | 20.56° C | 63% | 868 hPa | 0 mm | - | - | - |
| 1787573731 | 20° C | 61% | 868.1 hPa | 0 mm | - | - | - |
| 1787572774 | 20° C | 60% | 868.2 hPa | 0 mm | - | - | - |
| 1787572770 | 20° C | 60% | 868.2 hPa | 0 mm | - | - | - |
| 1787571814 | 20° C | 61% | 868.3 hPa | 0 mm | - | - | - |
| 1787571811 | 20° C | 61% | 868.3 hPa | 0 mm | - | - | - |
| 1787570851 | 18.89° C | 60% | 868.5 hPa | 0 mm | - | - | - |
| 1787569891 | 18.89° C | 61% | 868.6 hPa | 0 mm | - | - | - |
| 1787568934 | 18.89° C | 59% | 868.6 hPa | 0 mm | - | - | - |
| 1787568931 | 18.89° C | 59% | 868.6 hPa | 0 mm | - | - | - |
| 1787567975 | 18.33° C | 58% | 868.7 hPa | 0 mm | - | - | - |
| 1787567971 | 18.33° C | 58% | 868.7 hPa | 0 mm | - | - | - |
| 1787567011 | 18.89° C | 59% | 869 hPa | 0 mm | - | - | - |
| 1787566051 | 18.89° C | 58% | 869 hPa | 0 mm | - | - | - |
| 1787565094 | 18.33° C | 62% | 869.1 hPa | 0 mm | - | - | - |
| 1787565091 | 18.33° C | 62% | 869.1 hPa | 0 mm | - | - | - |
| 1787564131 | 18.33° C | 60% | 869.2 hPa | 0 mm | - | - | - |
| 1787563171 | 17.78° C | 59% | 869.5 hPa | 0 mm | - | - | - |
| 1787562211 | 17.78° C | 59% | 869.6 hPa | 0 mm | - | - | - |
* Rain latest hour (hover to see other rain measurements)
** Current wind speed in m/s (hover to see current wind gust speed)